Regional Weather Roundup
Issued by NWS

Home | Current Version | Previous Version | Graphics & Text | Print | Product List | Glossary On
Versions: 1 2 3 4 5 6 7 8 9 10 11 12 13 14 15 16 17 18 19 20 21 22 23 24 25 26 27 28 29 30 31 32 33 34 35 36 37 38 39 40 41 42 43 44 45 46 47 48 49 50
000
ASUS43 KOAX 272202
RWRNE

WEATHER ROUNDUP FOR NEBRASKA
NATIONAL WEATHER SERVICE OMAHA NE
500 PM CDT SAT AUG 27 2016

NOTES: SATELLITE DATA IS BEING USED TO AUGMENT CLOUD COVER ABOVE
       12000 FEET.
       "FAIR" INDICATES FEW OR NO CLOUDS BELOW 12,000 FEET WITH NO
       SIGNIFICANT WEATHER AND/OR OBSTRUCTIONS TO VISIBILITY.

  * THESE STATIONS DO NOT REPORT WEATHER SUCH AS RAIN...SNOW OR FOG.

NEZ001>004-019>022-054>056-272300-
NEBRASKA PANHANDLE

CITY           SKY/WX    TMP DP  RH WIND       PRES   REMARKS
SCOTTSBLUFF    SUNNY     84  49  29 E12       29.97F
ALLIANCE       SUNNY     83  46  27 S14       29.98F
CHADRON        SUNNY     87  37  17 S12       29.91F
SIDNEY         SUNNY     82  41  23 CALM      30.04F
$$

NEZ057>060-069>072-079>082-272300-
SOUTHWEST NEBRASKA

CITY           SKY/WX    TMP DP  RH WIND       PRES   REMARKS
NORTH PLATTE   SUNNY     86  60  41 S12       29.98F
IMPERIAL       CLOUDY    82  59  45 S12       30.00F
LEXINGTON      SUNNY     83  62  48 S12G17    30.00S
MCCOOK         SUNNY     83  63  50 SE10      29.98F
OGALLALA       SUNNY     86  51  30 S9        29.99S
$$

NEZ005>010-023>029-035>040-094-272300-
NORTH CENTRAL NEBRASKA

CITY           SKY/WX    TMP DP  RH WIND       PRES   REMARKS
VALENTINE      SUNNY     86  57  37 S13       29.93F
AINSWORTH      MOSUNNY   83  59  43 S13       29.95F
BROKEN BOW     SUNNY     82  62  50 S13G22    29.99S
O`NEILL        SUNNY     86  58  38 S14G20    29.96F
ORD            SUNNY     84  58  40 S12G22    29.96F
THEDFORD       SUNNY     85  59  40 SW9G20    29.97F
$$

NEZ041-046>049-061>064-073>077-083>087-272300-
SOUTH CENTRAL NEBRASKA

CITY           SKY/WX    TMP DP  RH WIND       PRES   REMARKS
GRAND ISLAND   SUNNY     84  61  45 S9G21     29.99F
AURORA         SUNNY     83  63  50 S10       30.00F
HASTINGS       SUNNY     84  60  44 S8        30.00F
HEBRON         SUNNY     82  66  58 S8        30.00S
HOLDREGE       SUNNY     82  61  48 S12       30.00S
KEARNEY *      SUNNY     82  63  51 S12       29.98F
YORK           SUNNY     82  66  57 S8        30.00F
$$

NEZ011>018-030>034-042>045-272300-
NORTHEAST NEBRASKA

CITY           SKY/WX    TMP DP  RH WIND       PRES   REMARKS
NORFOLK        SUNNY     81  62  52 S9        29.98S
ALBION         SUNNY     81  63  54 S9        29.99S
BLAIR          SUNNY     81  66  60 SW3       29.99F
FREMONT        SUNNY     81  65  58 S5        29.99F
TEKAMAH        SUNNY     81  66  60 S5        29.97F
WAYNE          SUNNY     78  67  69 S8        29.99S
$$

NEZ050>053-065>068-078-088>093-272300-
SOUTHEAST NEBRASKA

CITY           SKY/WX    TMP DP  RH WIND       PRES   REMARKS
LINCOLN        SUNNY     85  64  49 SW5       29.99F
OMAHA EPPLEY   MOSUNNY   83  63  50 SW6       29.98F
BEATRICE       SUNNY     83  63  49 S6        29.99F
FALLS CITY     MOSUNNY   84  68  58 S7        29.98F
NEBRASKA CITY  SUNNY     82  65  56 SE5       30.00S
PLATTSMOUTH    MOSUNNY   82  67  62 SE5       30.00F
$$

NEZ044-045-051>053-067-272300-
OMAHA AREA

CITY           SKY/WX    TMP DP  RH WIND       PRES   REMARKS
OMAHA EPPLEY   MOSUNNY   83  63  50 SW6       29.98F
BLAIR          SUNNY     81  66  60 SW3       29.99F
FREMONT        SUNNY     81  65  58 S5        29.99F
MILLARD        SUNNY     82  65  56 CALM      29.98F
OFFUTT AFB     MOSUNNY   83  67  59 S9        29.98F
PLATTSMOUTH    MOSUNNY   82  67  62 SE5       30.00F
WAHOO          FAIR      81  65  57 S8        29.98F
$$




USA.gov is the U.S. government's official web portal to all federal, state and local government web resources and services.